Вернуться в каталог

STARLINK-1730

АктивенСвязьVLEO
NORAD 46563·PAYLOAD·🇺🇸 United States

Запущен Oct 6, 2020 с Cape Canaveral Space Force Station

Loading…

Ближайшие Пролёты (ближайшие 24 часа)

TLE

СвежийSource: CelesTrak SupGP

Эпоха: Sep 14, 2026, 22:16 UTC

1 46563C 20070AH  26257.92826389  .00191290  00000+0  10107-2 0  2571
2 46563  53.0152 277.9995 0004201  14.6902  50.0232 15.79801600    19

Отслеживайте STARLINK-1730 в реальном времени с AllMySat

Download on the App Store